Cloud_Cover
5 6 72 79 86 99 59 63 94 97 100 100 98 100 94 100 83 68 85 84 100 100 86 100 100 100 100 100 100 100 100 100 100 100 100 100 100 100 100 100 100 100 100
75 88 56 100 100 99 92 89 100 100 100 100 100 100 100 100 100 71 33 78 100 100 100 100 100 100 100 100 100 100 100 100 100 100 100 100 100 100 100 100 100 100 100
66 88 76 100 100 96 98 98 97 99 100 100 100 100 100 100 100 100 75 5 66 96 100 100 100 98 97 100 100 100 100 100 100 100 100 100 100 100 100 100 100 100 100
100 100 100 100 100 77 37 31 48 94 81 97 93 99 100 100 100 86 47 5 5 61 76 91 100 100 100 98 100 100 100 100 100 100 100 100 100 100 100 100 100 100 100
100 100 100 100 40 10 5 5 5 16 62 88 94 57 66 71 47 21 40 5 5 9 55 95 100 100 100 100 96 100 97 100 100 100 100 100 100 100 100 100 100 100 100
98 47 95 69 5 5 5 5 5 5 98 51 98 100 94 100 84 5 5 42 71 5 68 60 81 76 100 100 100 100 100 100 100 100 100 100 100 100 100 100 100 100 100
61 6 5 5 5 5 2 5 5 5 5 41 16 99 100 100 100 98 52 70 60 100 18 41 76 100 94 99 100 100 100 100 100 100 100 100 100 100 100 100 100 100 100
5 5 5 2 2 0 4 5 5 5 5 6 74 100 100 100 100 100 100 100 100 96 100 66 40 74 100 100 100 100 100 100 100 100 100 100 100 100 100 100 100 100 100
5 5 5 5 0 1 4 5 5 5 5 5 5 25 95 85 94 100 100 100 100 100 100 100 78 100 100 100 100 100 100 100 100 100 100 100 100 100 100 100 100 100 100
5 5 5 5 5 5 5 5 5 5 5 5 5 5 5 38 79 94 100 78 100 100 100 100 100 100 100 100 100 100 100 100 100 100 100 100 100 100 100 100 100 100 100
5 5 5 5 5 5 5 5 5 79 37 51 39 38 5 5 59 98 80 61 78 42 76 42 77 100 100 100 100 100 100 100 100 100 100 100 100 100 100 100 100 100 100
42 11 5 5 5 5 5 5 5 49 92 91 61 65 62 8 6 89 100 100 51 47 73 87 79 98 100 100 70 99 100 100 100 100 100 100 100 100 100 100 100 100 100
40 5 5 5 5 5 5 5 5 5 73 98 72 74 60 5 5 5 7 5 5 20 35 6 15 8 32 73 85 98 100 100 100 100 100 100 100 100 100 100 100 100 100
32 12 26 5 5 5 5 6 11 35 45 52 28 65 51 5 5 5 5 5 7 5 14 27 5 5 20 99 79 96 33 46 100 82 100 100 100 100 100 100 100 100 100
5 13 24 5 5 5 21 44 43 56 57 62 55 49 50 36 17 50 63 99 56 5 5 5 5 5 5 21 40 39 54 50 100 100 100 100 100 100 100 100 100 100 100
5 5 5 5 5 38 79 32 24 33 63 59 54 34 40 6 8 35 84 100 84 5 5 5 44 44 60 80 77 67 35 71 68 99 100 100 96 100 100 100 100 100 100
5 5 5 5 5 10 34 38 48 40 10 6 5 5 5 10 5 92 72 86 65 5 5 34 59 66 80 94 100 100 77 7 5 84 100 75 97 100 100 98 95 100 100
9 5 5 5 7 34 88 100 100 100 58 27 39 94 97 84 33 100 90 13 5 14 17 64 96 85 95 100 98 80 8 8 13 98 16 67 78 99 100 100 100 72 23
13 62 48 90 99 100 100 100 94 71 74 88 91 71 95 100 98 81 6 7 56 70 59 74 88 60 89 100 86 41 61 46 73 93 38 17 6 16 56 67 100 68 96
87 97 100 100 98 89 70 58 61 50 27 75 87 89 95 100 69 90 87 54 62 67 82 55 70 61 94 77 58 92 21 43 73 47 24 48 25 5 14 73 45 98 99
100 100 100 90 86 100 100 93 87 99 100 100 100 93 73 74 79 99 98 92 64 61 78 49 55 89 89 53 8 35 38 96 22 5 9 37 28 8 54 100 100 100 100
99 100 100 100 100 100 99 100 100 100 100 98 100 97 81 100 94 84 96 95 98 68 41 13 15 99 86 63 5 14 53 100 64 50 92 61 5 5 51 94 99 88 100
100 100 95 100 99 100 100 100 100 93 100 100 100 99 99 91 87 85 95 95 78 67 19 15 79 100 74 5 7 70 92 86 68 89 100 82 5 5 35 100 99 100 100
100 100 100 100 98 94 99 100 100 96 100 96 96 96 90 93 97 99 92 91 85 56 57 76 56 16 19 8 49 94 89 50 62 32 58 55 54 84 100 100 100 100 100
91 95 98 100 100 100 97 100 99 96 90 92 95 96 99 100 97 99 70 65 34 5 5 5 5 18 85 35 57 99 100 100 67 5 5 75 100 100 100 100 100 100 100
86 84 100 99 94 98 89 88 92 87 84 83 99 100 93 74 89 48 28 9 5 5 5 5 15 56 5 5 37 100 95 34 5 5 55 68 89 94 100 100 87 100 100